Date String (YYYY-MM-DD hh:mm:ss) UTC,Instrument flags,absolute air pressure of the measurement (hPa),sample flow rate (lpm),inlet stack bypass flow (lpm),air temperature of the measurement (°C),ambient temperature measured by the external sensor (°C),aerosol sample conditioner tube jacket temperature (°C),OPC LED temperature (°C),internal box temperature (°C),relative humidity of the measurement (%),span deviation,mass concentration of particles derived from Lorenz-Mie calculation of OPC scattering (μg/m³),mass concentration of particles derived from Lorenz-Mie calculation of OPC scattering (μg/m³),mass concentration of particles derived from Lorenz-Mie calculation of OPC scattering (μg/m³)
DateTimeUTC,F1_M11,P_M11,Q1_M11,Q2_M11,T1_M11,T2_M11,T3_M11,T4_M11,T5_M11,U1_M11,ZSPAN_M11,X0_M11,X2_M11,X1_M11
2023-11-13 04:00:00,SystemResetWarning,0838.2,5.00,000.00,026.9,025.6,000.0,035.3,028.3,7.6,0000.0,0011.50,0003.32,0002.48
2023-11-13 04:01:00,SystemResetWarning,0838.2,5.00,000.00,026.9,025.6,000.0,035.3,028.3,7.7,0000.0,0011.59,0003.34,0002.49
2023-11-13 04:02:00,SystemResetWarning,0838.3,5.01,000.00,026.9,025.7,000.0,035.3,028.3,7.7,0000.0,0011.58,0003.36,0002.52
2023-11-13 04:03:00,SystemResetWarning,0838.3,5.00,000.00,026.9,025.7,000.0,035.3,028.2,7.7,0000.0,0011.60,0003.35,0002.52
2023-11-13 04:04:00,SystemResetWarning,0838.3,4.99,000.00,026.9,025.7,000.0,035.3,028.3,7.7,0000.0,0010.96,0003.37,0002.51
2023-11-13 04:05:00,SystemResetWarning,0838.3,4.99,000.00,026.9,025.6,000.0,035.3,028.3,7.7,0000.0,0010.72,0003.37,0002.52
2023-11-13 04:06:00,SystemResetWarning,0838.2,5.01,000.00,026.9,025.6,000.0,035.3,028.3,7.7,0000.0,0010.19,0003.39,0002.52
2023-11-13 04:07:00,SystemResetWarning,0838.2,5.01,000.00,026.9,025.6,000.0,035.3,028.3,7.7,0000.0,0010.36,0003.41,0002.53
2023-11-13 04:08:00,SystemResetWarning,0838.2,5.00,000.00,026.9,025.6,000.0,035.3,028.2,7.7,0000.0,0009.08,0003.45,0002.54
2023-11-13 04:09:00,SystemResetWarning,0838.2,4.99,000.00,026.9,025.7,000.0,035.3,028.2,7.7,0000.0,0008.39,0003.46,0002.53
2023-11-13 04:10:00,SystemResetWarning,0838.2,5.00,000.00,026.9,025.6,000.0,035.3,028.2,7.6,0000.0,0008.57,0003.50,0002.55
2023-11-13 04:11:00,SystemResetWarning,0838.2,4.99,000.00,026.9,025.6,000.0,035.3,028.2,7.6,0000.0,0008.60,0003.50,0002.58
2023-11-13 04:12:00,SystemResetWarning,0838.2,5.00,000.00,026.9,025.6,000.0,035.3,028.2,7.7,0000.0,0009.57,0003.50,0002.59
2023-11-13 04:13:00,SystemResetWarning,0838.2,5.01,000.00,026.9,025.7,000.0,035.3,028.2,7.6,0000.0,0009.72,0003.48,0002.59
2023-11-13 04:14:00,SystemResetWarning,0838.2,5.01,000.00,026.9,025.7,000.0,035.3,028.2,7.6,0000.0,0009.63,0003.48,0002.58
2023-11-13 04:15:00,SystemResetWarning,0838.2,5.00,000.00,026.9,025.7,000.0,035.3,028.2,7.6,0000.0,0009.16,0003.47,0002.58
2023-11-13 04:16:00,SystemResetWarning,0838.2,4.99,000.00,026.9,025.7,000.0,035.3,028.2,7.6,0000.0,0010.10,0003.49,0002.59
2023-11-13 04:17:00,SystemResetWarning,0838.2,4.99,000.00,026.9,025.7,000.0,035.3,028.2,7.6,0000.0,0011.39,0003.48,0002.59
2023-11-13 04:18:00,SystemResetWarning,0838.2,5.00,000.00,026.9,025.7,000.0,035.3,028.3,7.6,0000.0,0011.56,0003.47,0002.59
2023-11-13 04:19:00,SystemResetWarning,0838.3,5.01,000.00,026.9,025.8,000.0,035.3,028.3,7.8,0000.0,0011.63,0003.47,0002.59
2023-11-13 04:20:00,SystemResetWarning,0838.2,5.00,000.00,026.9,025.8,000.0,035.3,028.3,7.7,0000.0,0011.52,0003.46,0002.59
2023-11-13 04:21:00,SystemResetWarning,0838.2,5.01,000.00,026.9,025.8,000.0,035.3,028.3,7.6,0000.0,0011.84,0003.44,0002.60
2023-11-13 04:22:00,SystemResetWarning,0838.3,5.00,000.00,026.9,025.8,000.0,035.3,028.3,7.5,0000.0,0012.45,0003.42,0002.57
2023-11-13 04:23:00,SystemResetWarning,0838.3,5.01,000.00,026.9,025.7,000.0,035.3,028.3,7.5,0000.0,0011.54,0003.40,0002.55
2023-11-13 04:24:00,SystemResetWarning,0838.3,5.01,000.00,026.9,025.8,000.0,035.3,028.3,7.6,0000.0,0011.48,0003.36,0002.52
2023-11-13 04:25:00,SystemResetWarning,0838.3,5.00,000.00,026.9,025.8,000.0,035.3,028.3,7.6,0000.0,0011.55,0003.33,0002.52
2023-11-13 04:26:00,SystemResetWarning,0838.4,5.00,000.00,026.9,025.8,000.0,035.3,028.4,7.6,0000.0,0011.64,0003.33,0002.51
2023-11-13 04:27:00,SystemResetWarning,0838.4,4.99,000.00,026.9,025.9,000.0,035.3,028.4,7.6,0000.0,0010.25,0003.32,0002.50
2023-11-13 04:28:00,SystemResetWarning,0838.4,4.99,000.00,026.9,025.9,000.0,035.3,028.4,7.6,0000.0,0008.90,0003.30,0002.47
2023-11-13 04:29:00,SystemResetWarning,0838.4,5.00,000.00,026.9,025.9,000.0,035.3,028.4,7.6,0000.0,0008.94,0003.27,0002.47
2023-11-13 04:30:00,SystemResetWarning,0838.5,5.01,000.00,026.9,025.9,000.0,035.3,028.4,7.6,0000.0,0008.73,0003.26,0002.48
2023-11-13 04:31:00,SystemResetWarning,0838.5,5.00,000.00,026.9,025.9,000.0,035.3,028.4,7.5,0000.0,0008.78,0003.26,0002.47
2023-11-13 04:32:00,SystemResetWarning,0838.5,5.00,000.00,026.9,025.9,000.0,035.3,028.4,7.5,0000.0,0008.44,0003.27,0002.46
2023-11-13 04:33:00,SystemResetWarning,0838.5,5.01,000.00,026.9,025.9,000.0,035.3,028.4,7.6,0000.0,0007.86,0003.27,0002.47
2023-11-13 04:34:00,SystemResetWarning,0838.5,5.01,000.00,026.9,025.9,000.0,035.3,028.4,7.6,0000.0,0008.27,0003.30,0002.47
2023-11-13 04:35:00,SystemResetWarning,0838.5,4.98,000.00,026.9,025.9,000.0,035.3,028.4,7.6,0000.0,0008.32,0003.32,0002.47
2023-11-13 04:36:00,SystemResetWarning,0838.5,4.99,000.00,026.9,025.9,000.0,035.3,028.4,7.6,0000.0,0008.73,0003.36,0002.47
2023-11-13 04:37:00,SystemResetWarning,0838.4,5.00,000.00,026.9,025.9,000.0,035.3,028.4,7.6,0000.0,0008.67,0003.36,0002.47
2023-11-13 04:38:00,SystemResetWarning,0838.5,5.00,000.00,026.9,025.9,000.0,035.3,028.4,7.7,0000.0,0008.69,0003.36,0002.46
2023-11-13 04:39:00,SystemResetWarning,0838.5,5.00,000.00,026.9,025.9,000.0,035.3,028.4,7.7,0000.0,0008.79,0003.38,0002.48
2023-11-13 04:40:00,SystemResetWarning,0838.5,5.00,000.00,026.9,025.9,000.0,035.3,028.4,7.7,0000.0,0008.37,0003.39,0002.47
2023-11-13 04:41:00,SystemResetWarning,0838.5,5.00,000.00,026.9,025.9,000.0,035.3,028.4,7.7,0000.0,0008.23,0003.39,0002.46
2023-11-13 04:42:00,SystemResetWarning,0838.4,5.00,000.00,026.9,025.9,000.0,035.3,028.3,7.7,0000.0,0008.08,0003.38,0002.45
2023-11-13 04:43:00,SystemResetWarning,0838.4,4.99,000.00,026.9,025.9,000.0,035.3,028.3,7.7,0000.0,0008.05,0003.37,0002.46
2023-11-13 04:44:00,SystemResetWarning,0838.4,4.99,000.00,026.9,025.9,000.0,035.3,028.3,7.7,0000.0,0008.33,0003.37,0002.45
2023-11-13 04:45:00,SystemResetWarning,0838.4,4.99,000.00,026.9,025.9,000.0,035.3,028.4,7.7,0000.0,0008.19,0003.33,0002.44
2023-11-13 04:46:00,SystemResetWarning,0838.4,5.00,000.00,026.9,025.9,000.0,035.3,028.4,7.7,0000.0,0007.89,0003.32,0002.43
2023-11-13 04:47:00,SystemResetWarning,0838.4,5.00,000.00,026.9,025.9,000.0,035.3,028.3,7.7,0000.0,0007.27,0003.26,0002.42
2023-11-13 04:48:00,SystemResetWarning,0838.4,5.00,000.00,026.9,025.9,000.0,035.3,028.3,7.7,0000.0,0008.14,0003.26,0002.41
2023-11-13 04:49:00,SystemResetWarning,0838.4,5.01,000.00,026.9,025.9,000.0,035.3,028.4,7.8,0000.0,0008.37,0003.27,0002.40
2023-11-13 04:50:00,SystemResetWarning,0838.4,5.01,000.00,026.9,025.9,000.0,035.3,028.3,7.8,0000.0,0008.28,0003.25,0002.40
2023-11-13 04:51:00,SystemResetWarning,0838.4,5.00,000.00,026.9,025.9,000.0,035.3,028.3,7.8,0000.0,0008.13,0003.23,0002.42
2023-11-13 04:52:00,SystemResetWarning,0838.4,5.00,000.00,026.9,025.9,000.0,035.3,028.4,7.8,0000.0,0008.10,0003.22,0002.43
2023-11-13 04:53:00,SystemResetWarning,0838.4,5.00,000.00,026.9,025.9,000.0,035.3,028.3,7.8,0000.0,0008.10,0003.21,0002.42
2023-11-13 04:54:00,SystemResetWarning,0838.4,5.00,000.00,026.9,025.9,000.0,035.3,028.3,7.8,0000.0,0008.16,0003.23,0002.41
2023-11-13 04:55:00,SystemResetWarning,0838.4,5.00,000.00,026.9,025.9,000.0,035.3,028.4,7.8,0000.0,0007.85,0003.23,0002.41
2023-11-13 04:56:00,SystemResetWarning,0838.4,5.00,000.00,026.9,025.9,000.0,035.3,028.3,7.8,0000.0,0007.48,0003.22,0002.40
2023-11-13 04:57:00,SystemResetWarning,0838.4,5.00,000.00,026.9,025.8,000.0,035.2,028.3,7.9,0000.0,0008.44,0003.23,0002.39
2023-11-13 04:58:00,SystemResetWarning,0838.4,5.00,000.00,026.9,025.9,000.0,035.2,028.3,7.9,0000.0,0008.59,0003.24,0002.40
2023-11-13 04:59:00,SystemResetWarning,0838.3,5.00,000.00,026.9,025.8,000.0,035.3,028.4,7.9,0000.0,0007.78,0003.22,0002.41
